Wind_Speed
4 4 3 3 3 3 3 2 2 2 2 2 2 2 3 3 2 2 2 2 2 3 3 3 4 4 4 4 4 4 4 5 5 5 5 5 5 5 6 6 6 6 6
3 3 2 3 3 2 2 2 2 2 2 3 3 4 4 4 4 4 4 4 4 5 5 5 6 6 6 6 6 6 7 7 6 6 6 7 7 7 7 8 8 8 8
3 3 2 2 2 1 1 1 1 1 2 3 4 5 5 6 6 6 6 6 6 6 7 7 7 8 8 8 8 9 9 9 9 9 9 9 9 9 9 9 10 10 10
3 2 2 1 1 1 1 1 2 2 3 4 4 5 6 7 7 7 7 8 8 8 8 8 8 9 10 10 10 11 11 11 11 11 11 11 11 11 12 12 12 12 12
3 2 2 1 0 1 2 3 3 3 4 4 5 5 7 8 8 9 9 9 10 10 10 10 10 10 11 11 11 12 12 12 12 13 13 13 13 13 14 14 14 14 14
3 1 0 1 1 1 2 3 4 4 4 5 5 6 7 7 8 9 10 11 11 11 11 12 12 12 13 14 13 13 13 13 14 14 15 15 14 14 14 14 15 15 16
4 3 2 1 2 2 2 3 3 4 5 6 6 7 7 8 8 9 10 11 12 12 13 13 14 14 14 15 15 15 16 15 15 16 15 16 16 17 16 16 16 17 18
5 4 3 3 3 3 3 3 4 4 5 5 6 7 7 8 9 10 11 11 12 13 13 14 15 15 15 16 16 16 17 16 16 16 17 17 18 18 18 19 19 19 20
6 5 4 3 3 3 4 4 4 5 5 6 7 8 8 9 10 11 12 13 14 14 14 14 15 15 16 16 17 17 17 18 18 19 19 20 20 21 21 21 22 22 22
7 6 5 5 4 4 4 5 5 6 6 7 8 8 9 10 11 12 13 14 14 15 16 16 17 17 17 17 18 18 18 19 20 20 20 20 21 22 22 22 22 23 23
8 7 7 5 5 5 5 6 6 7 7 8 9 9 10 10 11 12 13 14 15 16 17 17 17 17 17 18 18 18 19 20 21 21 22 22 22 23 23 23 23 24 24
8 8 7 6 6 6 6 7 7 8 8 9 10 10 10 11 12 13 13 14 15 15 16 16 16 17 17 18 18 19 20 21 22 22 22 23 24 24 25 24 25 25 25
9 8 7 7 7 8 8 8 8 9 9 10 11 11 11 12 13 13 14 14 15 15 16 16 17 18 19 19 20 20 21 22 22 22 22 23 24 24 25 25 25 25 25
9 9 8 8 8 9 9 9 9 9 10 11 11 11 11 12 13 13 14 15 15 16 16 17 17 18 18 19 20 20 21 21 22 23 23 24 25 26 27 27 26 27 27
10 9 9 10 10 10 10 11 11 11 12 12 11 11 11 12 13 13 14 14 15 15 16 17 17 18 18 19 20 21 21 21 22 23 23 24 25 26 26 26 26 26 26
10 10 10 11 11 12 12 12 13 13 13 12 12 12 12 12 13 13 13 14 15 16 16 17 18 19 20 20 21 22 22 23 23 24 24 24 24 24 25 26 27 27 28
11 11 11 11 12 13 13 13 13 13 13 13 13 13 13 13 13 13 14 15 16 16 17 18 19 19 20 20 21 22 22 23 23 24 25 25 24 25 26 26 27 28 29
11 12 12 13 13 14 13 13 14 14 14 14 14 13 13 13 13 13 15 15 16 17 17 18 19 20 20 20 21 22 23 24 24 24 24 24 24 25 26 27 27 28 29
12 13 13 13 13 14 14 14 14 15 15 14 14 14 14 14 14 14 15 16 17 17 18 18 19 20 21 22 22 24 24 24 24 24 24 24 24 25 26 27 27 27 28
13 14 14 14 14 14 15 15 15 15 15 15 15 15 15 15 15 16 17 17 18 18 18 19 20 20 22 22 23 24 24 24 24 24 24 25 26 26 27 27 27 28 28
14 14 14 14 14 14 15 16 16 16 16 16 16 16 16 16 17 18 19 19 19 19 19 20 20 21 22 22 23 24 24 24 24 25 25 26 26 27 27 27 27 28 28
15 15 15 15 15 15 16 17 17 17 17 17 17 17 17 18 19 19 20 20 20 20 20 21 21 21 22 22 23 23 24 24 25 26 26 26 27 27 27 28 28 28 28
16 16 16 17 17 17 17 17 18 18 18 18 18 18 19 19 19 20 19 19 20 20 21 21 21 22 22 23 23 23 24 24 25 25 26 26 27 27 27 28 28 28 28
17 17 18 18 18 18 18 18 19 19 19 20 20 20 20 20 20 20 21 21 21 21 21 22 22 22 22 23 23 24 24 25 25 25 26 26 26 27 27 27 27 27 27
18 19 19 19 19 19 20 20 21 21 21 21 21 21 21 21 22 22 22 22 22 22 22 22 23 23 23 24 24 25 25 26 26 26 26 26 27 27 27 27 27 27 28
20 21 21 20 20 21 21 22 22 22 22 22 23 22 22 22 22 22 22 22 23 23 23 23 24 24 25 25 26 26 27 27 27 26 27 27 27 27 28 28 28 28 28
Wind_Direction
96 100 110 124 135 147 153 152 156 166 182 199 219 221 221 226 232 245 257 268 267 268 269 276 280 277 276 275 272 271 268 271 277 280 277 278 280 275 271 271 272 274 272
85 88 89 114 128 143 166 167 175 210 234 236 242 246 248 252 252 258 265 271 274 276 277 279 275 273 272 270 271 273 273 273 272 276 278 279 278 277 274 271 271 272 271
72 81 85 104 117 137 162 173 197 248 270 266 258 259 259 260 259 259 265 271 275 278 278 277 277 275 274 273 272 273 276 274 273 274 275 277 279 278 276 272 271 271 271
45 62 76 109 148 194 226 245 252 274 285 279 271 267 266 264 264 262 264 269 272 274 278 278 278 277 277 276 276 275 276 274 274 275 276 275 275 275 273 270 270 269 270
49 74 72 77 133 240 257 266 272 278 285 285 278 276 272 268 265 265 265 268 271 272 275 277 277 278 278 276 277 276 275 275 275 275 276 276 275 274 272 270 269 270 271
43 37 21 32 1 319 291 283 279 281 288 292 285 280 278 275 271 270 268 270 272 273 274 276 277 277 277 277 276 278 276 275 275 276 277 276 275 275 274 270 268 269 272
27 12 352 29 7 346 325 317 308 298 292 290 290 284 283 280 279 277 274 273 275 277 278 278 278 277 277 277 278 280 277 274 276 276 275 275 274 274 274 274 273 272 273
23 20 31 28 21 14 356 336 324 313 305 298 293 293 289 283 280 281 281 277 276 279 279 280 278 277 277 278 281 281 279 277 277 276 276 275 274 274 274 273 274 274 273
33 35 25 22 12 354 348 334 322 317 314 309 303 296 296 292 288 284 281 280 278 279 280 283 283 279 278 279 280 281 278 276 276 276 278 280 277 275 276 274 275 274 274
31 30 18 14 10 357 345 336 328 321 318 314 310 306 301 295 289 287 286 283 279 281 281 284 284 281 281 281 281 280 277 277 278 280 282 281 279 278 276 276 276 276 276
30 29 24 17 6 356 348 338 331 322 316 313 311 307 304 299 295 294 294 291 286 285 283 283 284 285 285 283 283 284 280 279 279 278 280 281 281 281 279 277 278 278 278
24 22 21 12 2 354 346 341 337 331 324 317 311 306 303 302 300 300 299 296 293 293 291 287 283 286 287 288 286 288 287 284 281 279 280 281 280 281 278 279 279 278 278
15 10 5 359 352 346 340 335 331 327 325 322 316 310 304 301 300 299 298 296 295 293 292 292 288 285 286 287 288 289 289 290 286 284 282 282 280 279 277 278 280 278 276
4 2 356 351 347 341 335 331 330 325 323 320 317 312 305 302 300 298 298 297 296 295 291 292 291 288 288 288 288 289 290 289 286 286 284 283 281 279 278 279 279 277 275
356 353 349 345 340 334 331 329 326 323 322 320 315 311 307 305 302 300 301 301 298 294 292 291 289 289 290 290 290 290 290 289 287 287 287 287 283 282 282 283 284 283 279
346 343 342 341 336 331 329 328 326 323 323 323 319 315 309 307 305 303 303 304 301 297 294 292 292 290 292 295 294 292 291 290 290 289 289 289 288 287 286 286 287 287 283
342 339 337 337 335 329 324 324 325 324 323 323 319 317 313 311 308 305 304 303 302 300 297 293 292 294 295 296 296 296 294 294 295 295 294 294 292 290 289 288 288 287 285
340 338 333 330 328 329 325 323 325 323 320 320 319 316 315 311 309 310 309 307 304 302 300 297 295 296 297 297 297 297 297 295 299 299 297 296 295 292 291 291 291 289 286
337 337 335 331 329 328 327 322 323 323 321 319 316 315 315 313 313 312 309 307 307 306 303 301 299 298 298 298 297 298 299 298 299 299 299 298 297 295 294 292 292 292 290
336 337 336 333 330 329 328 326 324 323 321 320 318 315 313 312 310 310 309 309 309 309 305 304 303 301 302 302 300 300 300 299 299 300 299 298 297 297 296 295 293 293 292
330 331 332 331 329 328 328 327 324 323 321 320 320 318 314 311 309 306 306 308 308 307 305 305 305 304 303 303 303 303 302 302 301 300 301 301 300 299 298 297 297 296 295
325 326 326 327 327 328 327 326 325 323 322 320 319 317 314 313 310 309 308 309 308 307 307 307 307 307 306 306 306 305 304 304 303 302 303 302 301 299 298 299 298 297 296
319 320 320 321 321 323 324 324 323 322 322 320 319 317 314 313 312 312 312 311 311 310 310 308 308 308 307 307 307 306 305 306 305 304 304 304 303 302 302 301 299 298 297
313 313 312 314 316 317 319 320 320 319 318 318 317 317 315 314 313 313 311 311 311 311 310 308 309 308 308 309 307 306 306 305 306 307 305 306 306 306 305 304 302 301 299
308 308 308 308 309 310 312 314 315 314 315 315 315 314 315 314 314 313 311 311 311 310 308 308 308 308 308 308 307 306 306 306 306 306 307 307 307 306 306 305 303 302 301
306 306 306 305 305 306 306 308 310 311 311 312 313 313 312 312 311 311 311 310 310 310 309 309 309 308 308 307 307 307 307 306 306 305 306 307 307 307 307 306 305 303 302
Height
5886 5886 5886 5887 5887 5888 5888 5889 5890 5890 5891 5892 5892 5893 5894 5894 5894 5895 5895 5895 5895 5896 5895 5896 5895 5895 5895 5896 5896 5895 5895 5895 5895 5895 5895 5895 5895 5895 5895 5895 5895 5895 5895
5886 5886 5886 5887 5887 5888 5888 5889 5889 5890 5891 5891 5892 5892 5893 5894 5894 5894 5894 5894 5894 5894 5895 5895 5894 5894 5894 5895 5894 5894 5894 5894 5894 5894 5894 5894 5894 5894 5894 5894 5894 5894 5894
5886 5886 5887 5887 5888 5888 5888 5889 5889 5890 5890 5890 5891 5891 5892 5892 5893 5893 5893 5893 5893 5893 5893 5893 5893 5893 5893 5893 5893 5893 5893 5893 5892 5892 5892 5892 5892 5892 5892 5892 5891 5891 5891
5887 5886 5887 5887 5887 5888 5888 5889 5889 5889 5889 5889 5890 5890 5891 5891 5891 5891 5892 5892 5892 5892 5892 5892 5892 5892 5891 5891 5890 5890 5890 5890 5890 5890 5890 5890 5890 5889 5889 5889 5889 5889 5889
5887 5887 5887 5887 5887 5888 5888 5888 5888 5889 5889 5889 5888 5889 5889 5889 5890 5890 5890 5890 5890 5890 5890 5890 5890 5889 5889 5889 5888 5887 5887 5887 5887 5887 5887 5887 5887 5887 5886 5886 5886 5886 5886
5887 5887 5887 5887 5887 5887 5887 5888 5888 5888 5888 5888 5888 5888 5887 5887 5888 5888 5888 5888 5888 5888 5888 5888 5887 5887 5887 5886 5885 5885 5884 5884 5885 5884 5884 5884 5884 5883 5883 5883 5883 5883 5883
5887 5887 5887 5887 5887 5887 5887 5887 5887 5887 5887 5886 5886 5886 5886 5886 5886 5886 5886 5886 5886 5885 5885 5885 5884 5884 5884 5883 5883 5882 5881 5881 5881 5881 5880 5880 5880 5880 5879 5879 5879 5879 5879
5888 5888 5887 5887 5887 5887 5887 5887 5886 5886 5886 5885 5885 5885 5884 5885 5884 5884 5883 5883 5883 5882 5882 5882 5881 5881 5880 5880 5880 5879 5878 5878 5878 5877 5877 5876 5876 5876 5875 5875 5875 5874 5874
5888 5888 5888 5887 5887 5887 5887 5886 5886 5885 5885 5884 5884 5883 5883 5883 5882 5882 5881 5880 5880 5879 5879 5878 5878 5877 5877 5876 5876 5875 5875 5874 5874 5873 5873 5872 5871 5871 5871 5870 5870 5870 5869
5889 5889 5888 5888 5888 5887 5887 5886 5885 5884 5884 5883 5882 5882 5881 5881 5880 5879 5878 5877 5876 5876 5876 5875 5874 5874 5873 5872 5872 5871 5871 5870 5869 5869 5868 5867 5867 5866 5865 5865 5864 5864 5863
5890 5889 5889 5888 5888 5887 5886 5886 5884 5883 5883 5882 5881 5880 5879 5878 5877 5877 5876 5874 5873 5872 5872 5871 5870 5870 5869 5869 5868 5867 5866 5865 5865 5864 5863 5862 5861 5861 5860 5859 5859 5858 5857
5891 5890 5889 5888 5888 5887 5886 5885 5883 5882 5881 5880 5879 5878 5877 5876 5875 5874 5872 5871 5870 5869 5868 5867 5866 5866 5865 5865 5864 5863 5862 5860 5859 5858 5857 5857 5856 5855 5855 5854 5853 5852 5851
5891 5890 5889 5889 5888 5886 5885 5884 5883 5881 5880 5878 5877 5875 5874 5873 5872 5871 5870 5868 5867 5866 5865 5864 5863 5862 5861 5860 5859 5858 5857 5856 5854 5853 5852 5851 5850 5849 5848 5848 5847 5845 5845
5892 5891 5889 5888 5887 5886 5884 5883 5881 5880 5878 5876 5874 5873 5871 5870 5869 5867 5866 5865 5864 5862 5861 5860 5859 5858 5857 5856 5855 5854 5852 5850 5849 5848 5846 5845 5844 5843 5842 5841 5840 5839 5838
5892 5890 5889 5887 5886 5884 5883 5881 5879 5878 5876 5874 5872 5870 5869 5867 5866 5864 5863 5862 5861 5859 5857 5856 5855 5854 5852 5851 5850 5849 5847 5846 5844 5842 5841 5840 5839 5837 5836 5834 5833 5832 5831
5891 5889 5888 5886 5885 5883 5881 5879 5877 5875 5873 5871 5869 5867 5866 5864 5863 5861 5860 5858 5857 5855 5854 5852 5851 5849 5848 5846 5845 5843 5842 5840 5838 5837 5835 5834 5832 5831 5829 5828 5826 5825 5824
5890 5888 5887 5885 5883 5881 5879 5877 5875 5873 5871 5869 5867 5865 5863 5861 5859 5858 5856 5855 5853 5851 5850 5848 5847 5845 5844 5842 5840 5839 5837 5835 5833 5831 5829 5828 5826 5824 5822 5821 5819 5817 5816
5889 5887 5885 5883 5881 5879 5877 5875 5873 5870 5868 5866 5864 5862 5860 5858 5857 5855 5853 5851 5850 5848 5846 5844 5843 5841 5839 5838 5836 5834 5832 5830 5828 5826 5824 5821 5819 5817 5815 5814 5812 5810 5809
5887 5885 5883 5881 5879 5877 5874 5872 5870 5868 5866 5863 5861 5859 5857 5855 5854 5852 5850 5848 5846 5844 5842 5840 5838 5836 5835 5833 5831 5829 5827 5825 5822 5820 5818 5815 5813 5811 5808 5807 5805 5802 5801
5885 5883 5881 5879 5876 5874 5872 5870 5868 5865 5863 5861 5859 5856 5854 5852 5851 5849 5847 5845 5842 5840 5838 5836 5834 5832 5830 5827 5825 5823 5821 5819 5817 5814 5812 5809 5807 5804 5802 5799 5797 5795 5793
5884 5881 5879 5877 5874 5872 5870 5867 5865 5863 5860 5858 5856 5853 5851 5849 5847 5845 5843 5840 5838 5836 5834 5832 5830 5827 5825 5823 5820 5818 5815 5813 5810 5808 5805 5803 5800 5797 5795 5792 5789 5787 5785
5882 5879 5877 5875 5872 5870 5868 5865 5863 5860 5857 5855 5853 5850 5848 5845 5843 5841 5838 5836 5834 5832 5830 5827 5825 5822 5820 5817 5815 5812 5809 5807 5804 5802 5798 5796 5793 5790 5788 5785 5782 5780 5778
5879 5877 5875 5872 5870 5867 5865 5862 5860 5857 5854 5852 5849 5847 5844 5842 5839 5837 5834 5832 5830 5827 5825 5823 5820 5817 5815 5812 5809 5807 5804 5801 5798 5795 5792 5789 5786 5783 5781 5778 5775 5772 5770
5876 5874 5872 5869 5867 5864 5862 5859 5857 5854 5851 5848 5846 5843 5840 5838 5835 5833 5830 5828 5825 5822 5820 5818 5815 5812 5809 5806 5804 5801 5798 5795 5792 5789 5786 5783 5780 5777 5774 5771 5768 5765 5762
5873 5870 5868 5866 5863 5861 5858 5856 5853 5850 5847 5844 5842 5839 5836 5833 5831 5828 5826 5823 5820 5818 5815 5812 5810 5807 5804 5801 5798 5795 5792 5789 5786 5783 5780 5777 5773 5770 5767 5764 5761 5758 5755
5868 5866 5864 5861 5859 5857 5854 5851 5849 5846 5843 5840 5837 5835 5832 5829 5826 5823 5821 5818 5815 5813 5810 5807 5804 5801 5798 5795 5792 5789 5786 5782 5779 5776 5773 5770 5767 5763 5760 5757 5754 5751 5748